Regional Weather Roundup
Issued by NWS Little Rock, AR

Home | Current Version | Previous Version | Graphics & Text | Print | Product List | Glossary On
Versions: 1 2 3 4 5 6 7 8 9 10 11 12 13 14 15 16 17 18 19 20 21 22 23 24 25 26 27
000
ASUS44 KLZK 310605
RWRLZK

WEATHER ROUNDUP FOR ARKANSAS
NATIONAL WEATHER SERVICE LITTLE ROCK AR
100 AM CDT TUE MAY 31 2016

NOTE: "FAIR" INDICATES FEW OR NO CLOUDS BELOW 12,000 FEET WITH NO
SIGNIFICANT WEATHER AND/OR OBSTRUCTIONS TO VISIBILITY.

ARZ001-003-010-029-310700-
NORTHWEST ARKANSAS

CITY           SKY/WX    TMP DP  RH WIND       PRES   REMARKS
FAYETTEVILLE   PTCLDY    63  63 100 CALM      29.96F
6HR MIN TEMP:  63; 6HR MAX TEMP:  67; 6HR PCP: TRACE;

FORT SMITH     PTCLDY    69  66  90 NE3       29.93F
6HR MIN TEMP:  69; 6HR MAX TEMP:  73;

HARRISON       CLOUDY    64  63  96 S6        29.99F
6HR MIN TEMP:  63; 6HR MAX TEMP:  68; 6HR PCP:  0.02;

BENTONVILLE    CLOUDY    66  61  82 SE5       29.97F
6HR MIN TEMP:  66; 6HR MAX TEMP:  68; 6HR PCP:  0.09;

ROGERS           N/A     66  64  93 SE8       29.97F
6HR MIN TEMP:  66; 6HR MAX TEMP:  67; 6HR PCP: TRACE;

SILOAM SPGS    CLOUDY    64  57  77 CALM      29.97F
6HR MIN TEMP:  64; 6HR MAX TEMP:  66;

HIGHFILL       CLOUDY    66  65  96 E5        29.96F
6HR MIN TEMP:  66; 6HR MAX TEMP:  68; 6HR PCP:  0.03;

$$

ARZ004-005-016-310700-
NORTH CENTRAL ARKANSAS

CITY           SKY/WX    TMP DP  RH WIND       PRES   REMARKS
BATESVILLE     CLOUDY    66  63  88 SE3       29.96F
6HR MIN TEMP:  66; 6HR MAX TEMP:  72; 6HR PCP:  0.87;

FLIPPIN        CLOUDY   N/A N/A N/A CALM      29.94F
MTN HOME       LGT RAIN  65  64  97 SE3       29.97F
6HR MIN TEMP:  65; 6HR MAX TEMP:  69; 6HR PCP:  0.01;

$$

ARZ040-041-310700-
WEST CENTRAL ARKANSAS

CITY           SKY/WX    TMP DP  RH WIND       PRES   REMARKS
MENA           CLOUDY    68  68 100 CALM      29.98S
MOUNT IDA      CLOUDY    66  64  93 CALM      29.94F FOG
6HR MIN TEMP:  66; 6HR MAX TEMP:  72;

$$

ARZ009-017-025-026-028-310700-
NORTHEAST ARKANSAS

CITY           SKY/WX    TMP DP  RH WIND       PRES   REMARKS
CORNING          N/A     70  68  94 W7        29.98F
JONESBORO      LGT RAIN  70  65  84 W7        29.96F
6HR MIN TEMP:  70; 6HR MAX TEMP:  81; 6HR PCP: TRACE;

NEWPORT        LGT RAIN  69  69 100 CALM      29.95F
6HR MIN TEMP:  68; 6HR MAX TEMP:  73; 6HR PCP:  0.22;

WALNUT RIDGE   CLOUDY    70  63  78 S7        29.98F
6HR MIN TEMP:  70; 6HR MAX TEMP:  75; 6HR PCP:  0.03;

BLYTHEVILLE    CLOUDY    76  67  73 VRB5      29.96R
6HR MIN TEMP:  75; 6HR MAX TEMP:  88;

$$

ARZ022-023-033-042-044-310700-
CENTRAL ARKANSAS

CITY           SKY/WX    TMP DP  RH WIND       PRES   REMARKS
LITTLE ROCK    CLOUDY    67  65  93 N3        29.95F
6HR MIN TEMP:  67; 6HR MAX TEMP:  72; 6HR PCP:  1.03;

N LITTLE ROCK    N/A     65  64  96 CALM      29.92F
6HR MIN TEMP:  65; 6HR MAX TEMP:  73;

SEARCY         CLOUDY    67  66  97 CALM      29.97F
6HR MIN TEMP:  67; 6HR MAX TEMP:  78; 6HR PCP:  0.96;

HOT SPRINGS    PTCLDY    65  63  93 CALM      29.96F
6HR MIN TEMP:  64; 6HR MAX TEMP:  70; 6HR PCP:  0.05;

RUSSELLVILLE   MOCLDY    67  63  87 E5        29.96F
6HR MIN TEMP:  66; 6HR MAX TEMP:  78;

CLINTON        FAIR      64  64 100 CALM      29.98F
$$

ARZ036-310700-
EAST ARKANSAS

CITY           SKY/WX    TMP DP  RH WIND       PRES   REMARKS
WEST MEMPHIS   CLOUDY    69  66  90 NE6       29.94F
6HR MIN TEMP:  69; 6HR MAX TEMP:  84;

$$

ARZ050-053-066-070-073-310700-
SOUTHWEST ARKANSAS

CITY           SKY/WX    TMP DP  RH WIND       PRES   REMARKS
ARKADELPHIA    FAIR      65  65 100 N3        29.96S
6HR MIN TEMP:  65; 6HR MAX TEMP:  72;

CAMDEN         CLOUDY    66  63  88 CALM      29.94F
TEXARKANA      CLOUDY    69  68  96 E7        29.94S
6HR MIN TEMP:  69; 6HR MAX TEMP:  76; 6HR PCP:  1.04;

EL DORADO      LGT RAIN  69  68  96 CALM      29.95R
6HR MIN TEMP:  69; 6HR MAX TEMP:  75; 6HR PCP:  0.01;

DE QUEEN       CLOUDY    70  66  87 VRB6      29.93S
6HR MIN TEMP:  70; 6HR MAX TEMP:  81;

$$

ARZ056-057-069-310700-
SOUTHEAST ARKANSAS

CITY           SKY/WX    TMP DP  RH WIND       PRES   REMARKS
STUTTGART      CLOUDY    70  61  73 E8        29.95S
6HR MIN TEMP:  68; 6HR MAX TEMP:  84; 6HR PCP:  0.49;

MONTICELLO     CLOUDY    69  66  90 CALM      29.95S
6HR MIN TEMP:  69; 6HR MAX TEMP:  77; 6HR PCP:  0.02;


$$






USA.gov is the U.S. government's official web portal to all federal, state and local government web resources and services.